Location: Marcé
(47.5801°N, 0.3280°W)
Time: 07:32:41
(UTC+01:00)

Vanguard 1 - Pass Details

Date: 01 December 2021
Orbit: 652 x 3830 km, 34.2° (Epoch: 16 January)

Event Time Altitude Azimuth Distance (km) Brightness Sun altitude
Exits shadow 03:17:20 51° 153° (SSE) 3,920 12.8 -50.9°
Drops below altitude 10° 03:30:52 10° 103° (ESE) 5,218 14.1 -48.9°
Sets 03:34:15 0° 98° (E) 5,872 14.6 -48.3°
